When you browse on this site, cookies collect data to enhance your experience and personalize the content and advertising you see.
Visit our Privacy Policy to learn more. By continuing to use the site, you agree to this use of cookies and data.
  • In Hungary
  • List of Countries
  • For 7 days
  • Water Temperature
  • Satellite Maps
  • Weather Map
  • News
  • Weather Widgets
  • user-avatar
    Login

    Hourly Weather Ashtarak

    Today, 19 April, Friday

    Time Temperature Precipitation Wind Pressure Humidity
    00:00 +7°C° 0.3 mm 1 mps 654 mmHg 64%
    01:00 +7°C° 0.3 mm 1 mps 654 mmHg 66%
    02:00 +7°C° 0.3 mm 1 mps 654 mmHg 67%
    03:00 +6°C° 0 mm 2 mps 653 mmHg 69%
    04:00 +6°C° 0.2 mm 2 mps 653 mmHg 69%
    05:00 +6°C° 0.2 mm 2 mps 653 mmHg 70%
    06:00 +6°C° 0.2 mm 1 mps 653 mmHg 70%
    07:00 +8°C° 0.3 mm 1 mps 653 mmHg 65%
    08:00 +9°C° 0.3 mm 1 mps 653 mmHg 61%
    09:00 +10°C° 0 mm 1 mps 653 mmHg 56%
    10:00 +11°C° 0.3 mm 1 mps 653 mmHg 54%
    11:00 +11°C° 0.3 mm 1 mps 653 mmHg 51%
    12:00 +12°C° 0.3 mm 1 mps 653 mmHg 48%
    13:00 +12°C° 0.3 mm 1 mps 652 mmHg 48%
    14:00 +12°C° 0.3 mm 1 mps 652 mmHg 47%
    15:00 +12°C° 0.3 mm 2 mps 652 mmHg 47%
    16:00 +12°C° 0.3 mm 2 mps 652 mmHg 49%
    17:00 +10°C° 0.3 mm 2 mps 652 mmHg 51%
    18:00 +9°C° 0.3 mm 2 mps 652 mmHg 53%
    19:00 +9°C° 0.4 mm 2 mps 652 mmHg 56%
    20:00 +8°C° 0.4 mm 2 mps 652 mmHg 59%
    21:00 +7°C° 0.4 mm 2 mps 652 mmHg 62%
    22:00 +7°C° 0.3 mm 2 mps 652 mmHg 63%
    23:00 +6°C° 0.3 mm 2 mps 652 mmHg 65%

    Tomorrow, 20 April, Saturday

    Time Temperature Precipitation Wind Pressure Humidity
    00:00 +6°C° 0.3 mm 2 mps 652 mmHg 66%
    01:00 +6°C° 0.4 mm 2 mps 652 mmHg 67%
    02:00 +4°C° 0.4 mm 3 mps 652 mmHg 67%
    03:00 +4°C° 0.4 mm 3 mps 652 mmHg 67%
    04:00 +4°C° 0.3 mm 3 mps 652 mmHg 67%
    05:00 +3°C° 0.3 mm 3 mps 652 mmHg 67%
    06:00 +3°C° 0.3 mm 3 mps 652 mmHg 67%
    07:00 +4°C° 0.3 mm 3 mps 653 mmHg 65%
    08:00 +6°C° 0.3 mm 2 mps 653 mmHg 62%
    09:00 +6°C° 0.3 mm 2 mps 654 mmHg 59%
    10:00 +7°C° 0.2 mm 2 mps 654 mmHg 57%
    11:00 +8°C° 0.2 mm 2 mps 654 mmHg 54%
    12:00 +9°C° 0.2 mm 1 mps 654 mmHg 52%
    13:00 +9°C° 0.2 mm 1 mps 654 mmHg 52%
    14:00 +10°C° 0.2 mm 1 mps 654 mmHg 51%
    15:00 +10°C° 0.2 mm 1 mps 654 mmHg 50%
    16:00 +9°C° 0.1 mm 1 mps 654 mmHg 51%
    17:00 +8°C° 0.1 mm 2 mps 654 mmHg 53%
    18:00 +7°C° 0.1 mm 2 mps 654 mmHg 54%
    19:00 +6°C° 0 mm 2 mps 654 mmHg 57%
    20:00 +5°C° 0 mm 2 mps 655 mmHg 60%
    21:00 +4°C° 0 mm 2 mps 655 mmHg 63%
    22:00 +4°C° 0 mm 2 mps 655 mmHg 63%
    23:00 +4°C° 0 mm 2 mps 655 mmHg 64%

    Day after tomorrow, 21 April, Sunday

    Time Temperature Precipitation Wind Pressure Humidity
    00:00 +3°C° 0 mm 2 mps 655 mmHg 65%
    01:00 +3°C° 0 mm 2 mps 655 mmHg 65%
    02:00 +3°C° 0 mm 2 mps 655 mmHg 65%
    03:00 +3°C° 0 mm 2 mps 655 mmHg 65%
    04:00 +3°C° 0.2 mm 2 mps 655 mmHg 65%
    05:00 +3°C° 0.2 mm 2 mps 655 mmHg 65%
    06:00 +3°C° 0.2 mm 2 mps 655 mmHg 65%
    07:00 +4°C° 0.2 mm 2 mps 655 mmHg 61%
    08:00 +6°C° 0.2 mm 2 mps 655 mmHg 58%
    09:00 +7°C° 0.2 mm 2 mps 655 mmHg 54%
    10:00 +8°C° 0.1 mm 2 mps 655 mmHg 52%
    11:00 +9°C° 0.1 mm 2 mps 655 mmHg 51%
    12:00 +10°C° 0.1 mm 3 mps 655 mmHg 49%
    13:00 +10°C° 0.1 mm 3 mps 655 mmHg 49%
    14:00 +10°C° 0.1 mm 2 mps 654 mmHg 49%
    15:00 +12°C° 0.1 mm 2 mps 654 mmHg 49%
    16:00 +10°C° 0.2 mm 3 mps 654 mmHg 51%
    17:00 +8°C° 0.2 mm 4 mps 654 mmHg 54%
    18:00 +7°C° 0.2 mm 4 mps 654 mmHg 57%
    19:00 +6°C° 0.2 mm 4 mps 654 mmHg 59%
    20:00 +5°C° 0.2 mm 5 mps 655 mmHg 61%
    21:00 +5°C° 0.2 mm 5 mps 655 mmHg 62%
    22:00 +4°C° 0.1 mm 4 mps 655 mmHg 63%
    23:00 +4°C° 0.1 mm 4 mps 655 mmHg 64%

    22 April, Monday

    Time Temperature Precipitation Wind Pressure Humidity
    00:00 +3°C° 0.1 mm 4 mps 655 mmHg 65%
    01:00 +3°C° 0.1 mm 4 mps 655 mmHg 65%
    02:00 +3°C° 0.1 mm 4 mps 655 mmHg 65%
    03:00 +3°C° 0.1 mm 4 mps 655 mmHg 65%
    04:00 +3°C° 0.1 mm 4 mps 655 mmHg 65%
    05:00 +3°C° 0.1 mm 3 mps 655 mmHg 65%
    06:00 +3°C° 0.1 mm 3 mps 655 mmHg 65%
    07:00 +4°C° 0.1 mm 3 mps 655 mmHg 60%
    08:00 +6°C° 0.1 mm 2 mps 655 mmHg 56%
    09:00 +8°C° 0.1 mm 2 mps 656 mmHg 51%
    10:00 +8°C° 0.1 mm 2 mps 656 mmHg 49%
    11:00 +9°C° 0.1 mm 3 mps 656 mmHg 48%
    12:00 +10°C° 0.1 mm 3 mps 655 mmHg 46%
    13:00 +10°C° 0.1 mm 3 mps 655 mmHg 47%
    14:00 +10°C° 0.1 mm 4 mps 655 mmHg 47%
    15:00 +10°C° 0.1 mm 4 mps 654 mmHg 48%
    16:00 +8°C° 0.1 mm 4 mps 654 mmHg 50%
    17:00 +7°C° 0.1 mm 4 mps 655 mmHg 52%
    18:00 +6°C° 0.1 mm 5 mps 655 mmHg 54%
    19:00 +6°C° 0.1 mm 4 mps 655 mmHg 56%
    20:00 +5°C° 0.1 mm 4 mps 656 mmHg 59%
    21:00 +5°C° 0.1 mm 3 mps 657 mmHg 61%
    22:00 +4°C° 0.2 mm 3 mps 657 mmHg 62%
    23:00 +4°C° 0.2 mm 3 mps 657 mmHg 63%

    23 April, Tuesday

    Time Temperature Precipitation Wind Pressure Humidity
    00:00 +5°C° 0.2 mm 2 mps 657 mmHg 64%
    01:00 +4°C° 0.2 mm 2 mps 657 mmHg 65%
    02:00 +4°C° 0.2 mm 2 mps 657 mmHg 66%
    03:00 +4°C° 0.2 mm 2 mps 657 mmHg 67%
    04:00 +4°C° 0.2 mm 2 mps 658 mmHg 67%
    05:00 +4°C° 0.2 mm 2 mps 658 mmHg 68%
    06:00 +4°C° 0.2 mm 2 mps 658 mmHg 68%
    07:00 +5°C° 0.3 mm 2 mps 659 mmHg 64%
    08:00 +6°C° 0.3 mm 2 mps 659 mmHg 61%
    09:00 +8°C° 0.3 mm 1 mps 659 mmHg 57%
    10:00 +8°C° 0.2 mm 1 mps 659 mmHg 55%
    11:00 +9°C° 0.2 mm 1 mps 659 mmHg 52%
    12:00 +10°C° 0.2 mm 1 mps 659 mmHg 50%
    13:00 +11°C° 0.2 mm 1 mps 659 mmHg 49%
    14:00 +11°C° 0.2 mm 1 mps 659 mmHg 49%
    15:00 +11°C° 0.2 mm 1 mps 659 mmHg 48%
    16:00 +11°C° 0.2 mm 1 mps 659 mmHg 50%
    17:00 +10°C° 0.2 mm 1 mps 660 mmHg 52%
    18:00 +10°C° 0.2 mm 1 mps 660 mmHg 54%
    19:00 +9°C° 0.2 mm 1 mps 660 mmHg 57%
    20:00 +8°C° 0.2 mm 1 mps 661 mmHg 59%
    21:00 +8°C° 0.2 mm 1 mps 661 mmHg 62%
    22:00 +7°C° 0.1 mm 1 mps 661 mmHg 64%
    23:00 +7°C° 0.1 mm 1 mps 661 mmHg 65%

    24 April, Wednesday

    Time Temperature Precipitation Wind Pressure Humidity
    00:00 +6°C° 0.1 mm 1 mps 661 mmHg 67%
    01:00 +6°C° 0.1 mm 1 mps 662 mmHg 68%
    02:00 +6°C° 0.1 mm 1 mps 662 mmHg 69%
    03:00 +5°C° 0.1 mm 1 mps 662 mmHg 70%
    04:00 +5°C° 0.1 mm 1 mps 662 mmHg 70%
    05:00 +5°C° 0.1 mm 1 mps 662 mmHg 71%
    06:00 +5°C° 0.1 mm 1 mps 663 mmHg 71%
    07:00 +7°C° 0.1 mm 1 mps 662 mmHg 66%
    08:00 +8°C° 0.1 mm 1 mps 662 mmHg 62%
    09:00 +9°C° 0.1 mm 1 mps 662 mmHg 57%
    10:00 +8°C° 0.1 mm 2 mps 662 mmHg 55%
    11:00 +9°C° 0.1 mm 2 mps 662 mmHg 52%
    12:00 +10°C° 0.1 mm 2 mps 661 mmHg 50%
    13:00 +11°C° 0.2 mm 1 mps 661 mmHg 49%
    14:00 +12°C° 0.2 mm 1 mps 661 mmHg 48%
    15:00 +12°C° 0.2 mm 1 mps 660 mmHg 48%
    16:00 +11°C° 0.2 mm 1 mps 660 mmHg 49%
    17:00 +11°C° 0.2 mm 1 mps 660 mmHg 51%
    18:00 +9°C° 0.2 mm 2 mps 660 mmHg 53%
    19:00 +9°C° 0.2 mm 2 mps 661 mmHg 56%
    20:00 +8°C° 0.2 mm 2 mps 661 mmHg 58%
    21:00 +7°C° 0.2 mm 2 mps 662 mmHg 60%
    22:00 +8°C° 0 mm 1 mps 662 mmHg 62%
    23:00 +7°C° 0 mm 1 mps 662 mmHg 64%
    Show more